JST18 VTSP-YMML

Flight info

Callsign JST18
Flight time N/A
Altitude 37000
Route REBED B579 VPL Y503 ISTEL/N0499F390 Y503 RINBA Y507 MITOS M630 BOBAG P501 ANITO B470 BUNIK T5 HLM A585 SAPDA/N0488F410 G222 METUM DCT 18S120E 20S123E 25S130E DCT CAULI DCT ARENI DCT CARTS DCT NATYA H119 ARBEY
Aircraft B788/H-SDE1E2E3FGHIJ2J3J4J5M1RWXY/LB1D1

Departure

Time N/A
Airport Phuket International Airport (VTSP)

Arrival

Time 2026-05-08 00:09
Airport Melbourne Airport (YMML)
Time Latitude Longitude Altitude Speed Heading
2026-05-07 23:10 -32.78797 140.18135 37511 ft 479 kts 133°
2026-05-07 23:11 -32.83274 140.24146 37533 ft 491 kts 133°
2026-05-07 23:11 -32.87059 140.29236 37795 ft 495 kts 133°
2026-05-07 23:11 -32.90109 140.33342 38068 ft 496 kts 133°
2026-05-07 23:12 -32.91617 140.35372 38210 ft 496 kts 133°
2026-05-07 23:12 -32.93907 140.38460 38410 ft 497 kts 133°
2026-05-07 23:12 -32.96198 140.41551 38651 ft 498 kts 133°
2026-05-07 23:12 -32.98485 140.44640 38847 ft 498 kts 133°
2026-05-07 23:13 -33.00783 140.47746 39067 ft 499 kts 133°
2026-05-07 23:13 -33.03078 140.50850 39247 ft 499 kts 133°
2026-05-07 23:13 -33.05376 140.53962 39446 ft 499 kts 133°
2026-05-07 23:13 -33.07667 140.57066 39629 ft 499 kts 133°
2026-05-07 23:14 -33.09962 140.60179 39803 ft 500 kts 133°
2026-05-07 23:14 -33.12227 140.63254 39998 ft 499 kts 133°
2026-05-07 23:14 -33.14522 140.66371 40190 ft 500 kts 133°
2026-05-07 23:14 -33.16815 140.69489 40379 ft 500 kts 133°
2026-05-07 23:15 -33.19107 140.72609 40563 ft 500 kts 133°
2026-05-07 23:15 -33.21399 140.75731 40747 ft 500 kts 133°
2026-05-07 23:15 -33.23692 140.78857 40951 ft 500 kts 133°
2026-05-07 23:15 -33.25982 140.81981 41131 ft 500 kts 133°
2026-05-07 23:16 -33.28277 140.85116 41324 ft 500 kts 133°
2026-05-07 23:16 -33.30568 140.88246 41480 ft 501 kts 133°
2026-05-07 23:16 -33.32873 140.91399 41466 ft 504 kts 133°
2026-05-07 23:17 -33.37472 140.97700 41466 ft 501 kts 133°
2026-05-07 23:17 -33.42048 141.03979 41458 ft 500 kts 133°
2026-05-07 23:18 -33.46587 141.10218 41460 ft 499 kts 133°
2026-05-07 23:18 -33.51146 141.16496 41451 ft 499 kts 133°
2026-05-07 23:19 -33.55706 141.22786 41455 ft 500 kts 133°
2026-05-07 23:19 -33.60266 141.29086 41462 ft 499 kts 133°
2026-05-07 23:20 -33.64817 141.35387 41461 ft 499 kts 133°
2026-05-07 23:20 -33.69370 141.41700 41455 ft 499 kts 133°
2026-05-07 23:21 -33.73907 141.48003 41460 ft 498 kts 133°
2026-05-07 23:21 -33.78414 141.54274 41439 ft 498 kts 133°
2026-05-07 23:22 -33.82941 141.60586 41443 ft 497 kts 133°
2026-05-07 23:22 -33.87460 141.66896 41441 ft 497 kts 133°
2026-05-07 23:23 -33.91962 141.73194 41443 ft 496 kts 133°
2026-05-07 23:23 -33.96457 141.79494 41447 ft 495 kts 133°
2026-05-07 23:24 -34.00945 141.85795 41442 ft 494 kts 133°
2026-05-07 23:24 -34.05413 141.92079 41443 ft 493 kts 133°
2026-05-07 23:25 -34.09868 141.98356 41438 ft 492 kts 133°
2026-05-07 23:25 -34.14291 142.04598 41435 ft 492 kts 133°
2026-05-07 23:26 -34.18739 142.10888 41436 ft 492 kts 133°
2026-05-07 23:26 -34.23196 142.17200 41434 ft 493 kts 133°
2026-05-07 23:27 -34.29860 142.26660 41428 ft 492 kts 133°
2026-05-07 23:27 -34.34264 142.32926 41427 ft 491 kts 133°
2026-05-07 23:28 -34.38688 142.39233 41421 ft 489 kts 133°
2026-05-07 23:28 -34.43085 142.45510 41419 ft 488 kts 133°
2026-05-07 23:29 -34.47467 142.51778 41417 ft 487 kts 133°
2026-05-07 23:29 -34.51843 142.58048 41416 ft 487 kts 133°
2026-05-07 23:30 -34.56209 142.64316 41417 ft 486 kts 133°
2026-05-07 23:30 -34.60549 142.70556 41414 ft 486 kts 133°
2026-05-07 23:31 -34.64907 142.76836 41410 ft 486 kts 132°
2026-05-07 23:31 -34.69254 142.83109 41399 ft 484 kts 132°
2026-05-07 23:32 -34.73582 142.89366 41402 ft 484 kts 132°
2026-05-07 23:32 -34.77911 142.95635 41405 ft 483 kts 132°
2026-05-07 23:33 -34.82233 143.01906 41397 ft 484 kts 132°
2026-05-07 23:33 -34.86552 143.08184 41398 ft 484 kts 132°
2026-05-07 23:34 -34.90854 143.14447 41390 ft 484 kts 132°
2026-05-07 23:34 -34.95175 143.20748 41389 ft 484 kts 134°
2026-05-07 23:35 -34.97581 143.23581 41405 ft 479 kts 145°
2026-05-07 23:35 -35.00336 143.25845 41385 ft 477 kts 150°
2026-05-07 23:35 -35.05983 143.30106 41384 ft 476 kts 151°
2026-05-07 23:36 -35.11635 143.34355 41376 ft 477 kts 150°
2026-05-07 23:36 -35.17243 143.38598 41375 ft 476 kts 151°
2026-05-07 23:37 -35.22882 143.42857 41373 ft 476 kts 151°
2026-05-07 23:37 -35.28507 143.47121 41372 ft 476 kts 151°
2026-05-07 23:38 -35.34145 143.51397 41369 ft 476 kts 151°
2026-05-07 23:38 -35.39766 143.55671 41364 ft 475 kts 151°
2026-05-07 23:39 -35.45381 143.59945 41362 ft 474 kts 151°
2026-05-07 23:39 -35.48134 143.62044 41072 ft 470 kts 151°
2026-05-07 23:39 -35.50921 143.64169 40414 ft 470 kts 150°
2026-05-07 23:40 -35.53696 143.66288 39844 ft 468 kts 150°
2026-05-07 23:40 -35.56452 143.68394 39281 ft 465 kts 150°
2026-05-07 23:40 -35.59193 143.70491 38673 ft 461 kts 150°
2026-05-07 23:40 -35.61907 143.72570 38125 ft 456 kts 150°
2026-05-07 23:41 -35.64577 143.74616 37589 ft 450 kts 150°
2026-05-07 23:41 -35.67193 143.76620 37070 ft 445 kts 150°
2026-05-07 23:41 -35.69811 143.78628 36549 ft 440 kts 150°
2026-05-07 23:41 -35.72388 143.80608 36057 ft 435 kts 151°
2026-05-07 23:42 -35.74940 143.82569 35540 ft 431 kts 151°
2026-05-07 23:42 -35.77473 143.84516 35040 ft 426 kts 151°
2026-05-07 23:42 -35.79976 143.86443 34551 ft 422 kts 151°
2026-05-07 23:42 -35.82450 143.88347 34040 ft 417 kts 152°
2026-05-07 23:43 -35.84902 143.90237 33548 ft 411 kts 152°
2026-05-07 23:43 -35.87289 143.92081 33068 ft 396 kts 152°
2026-05-07 23:43 -35.89559 143.93838 32629 ft 375 kts 152°
2026-05-07 23:43 -35.91777 143.95546 32211 ft 376 kts 152°
2026-05-07 23:44 -35.93971 143.97234 31790 ft 377 kts 152°
2026-05-07 23:44 -35.96191 143.98953 31361 ft 376 kts 152°
2026-05-07 23:44 -35.98390 144.00660 30940 ft 371 kts 152°
2026-05-07 23:44 -36.00569 144.02348 30512 ft 367 kts 152°
2026-05-07 23:45 -36.02724 144.04015 30074 ft 363 kts 152°
2026-05-07 23:45 -36.04847 144.05662 29668 ft 359 kts 152°
2026-05-07 23:45 -36.06960 144.07302 29265 ft 358 kts 152°
2026-05-07 23:45 -36.09067 144.08936 28862 ft 358 kts 152°
2026-05-07 23:46 -36.11182 144.10580 28469 ft 358 kts 152°
2026-05-07 23:46 -36.13275 144.12209 28070 ft 353 kts 153°
2026-05-07 23:46 -36.15316 144.13798 27691 ft 348 kts 153°
2026-05-07 23:46 -36.17365 144.15391 27301 ft 347 kts 153°
2026-05-07 23:47 -36.19407 144.16979 26919 ft 347 kts 153°
2026-05-07 23:47 -36.21460 144.18579 26531 ft 348 kts 153°
2026-05-07 23:47 -36.23497 144.20171 26149 ft 343 kts 153°
2026-05-07 23:47 -36.25503 144.21738 25781 ft 338 kts 153°
2026-05-07 23:48 -36.27472 144.23273 25410 ft 338 kts 153°
2026-05-07 23:48 -36.29467 144.24829 25041 ft 340 kts 153°
2026-05-07 23:48 -36.31468 144.26395 24661 ft 338 kts 153°
2026-05-07 23:48 -36.33500 144.27981 24301 ft 356 kts 153°
2026-05-07 23:49 -36.35671 144.29671 23910 ft 376 kts 153°
2026-05-07 23:49 -36.37866 144.31401 23458 ft 369 kts 152°
2026-05-07 23:49 -36.40015 144.33098 23052 ft 363 kts 153°
2026-05-07 23:49 -36.42162 144.34775 22657 ft 365 kts 153°
2026-05-07 23:50 -36.44319 144.36460 22254 ft 367 kts 153°
2026-05-07 23:50 -36.46432 144.38124 21867 ft 360 kts 153°
2026-05-07 23:50 -36.48534 144.39783 21474 ft 356 kts 153°
2026-05-07 23:50 -36.50630 144.41426 21097 ft 358 kts 153°
2026-05-07 23:51 -36.52741 144.43083 20716 ft 360 kts 153°
2026-05-07 23:51 -36.54834 144.44736 20329 ft 351 kts 153°
2026-05-07 23:51 -36.56885 144.46355 19960 ft 349 kts 153°
2026-05-07 23:51 -36.58947 144.47976 19584 ft 352 kts 153°
2026-05-07 23:52 -36.61019 144.49608 19204 ft 351 kts 153°
2026-05-07 23:52 -36.63054 144.51221 18824 ft 343 kts 153°
2026-05-07 23:52 -36.65072 144.52816 18449 ft 344 kts 153°
2026-05-07 23:52 -36.67099 144.54413 18065 ft 345 kts 153°
2026-05-07 23:53 -36.69124 144.56014 17691 ft 344 kts 153°
2026-05-07 23:53 -36.71113 144.57594 17320 ft 335 kts 153°
2026-05-07 23:53 -36.73079 144.59150 16975 ft 336 kts 153°
2026-05-07 23:53 -36.75040 144.60698 16618 ft 338 kts 153°
2026-05-07 23:54 -36.77006 144.62261 16254 ft 330 kts 153°
2026-05-07 23:54 -36.78934 144.63793 15908 ft 329 kts 153°
2026-05-07 23:54 -36.80958 144.65093 15564 ft 325 kts 166°
2026-05-07 23:54 -36.83142 144.65716 15216 ft 320 kts 173°
2026-05-07 23:55 -36.85294 144.66197 14872 ft 312 kts 174°
2026-05-07 23:55 -36.87443 144.66660 14539 ft 314 kts 174°
2026-05-07 23:55 -36.89608 144.67132 13966 ft 314 kts 173°
2026-05-07 23:55 -36.91719 144.67605 13579 ft 304 kts 173°
2026-05-07 23:56 -36.93809 144.68067 13251 ft 306 kts 174°
2026-05-07 23:56 -36.95913 144.68529 12923 ft 307 kts 173°
2026-05-07 23:56 -36.97983 144.68989 12601 ft 295 kts 173°
2026-05-07 23:56 -36.99939 144.69424 12296 ft 283 kts 174°
2026-05-07 23:57 -37.01863 144.69850 11984 ft 272 kts 174°
2026-05-07 23:57 -37.03666 144.70248 11701 ft 261 kts 174°
2026-05-07 23:57 -37.05454 144.70642 11399 ft 262 kts 174°
2026-05-07 23:57 -37.07245 144.71037 11110 ft 261 kts 174°
2026-05-07 23:58 -37.09022 144.71433 10821 ft 257 kts 174°
2026-05-07 23:58 -37.10771 144.71821 10557 ft 257 kts 174°
2026-05-07 23:58 -37.12531 144.72211 10329 ft 255 kts 174°
2026-05-07 23:58 -37.14281 144.72599 10161 ft 255 kts 174°
2026-05-07 23:59 -37.15424 144.72855 9972 ft 248 kts 174°
2026-05-07 23:59 -37.17067 144.73233 9711 ft 234 kts 172°
2026-05-07 23:59 -37.18671 144.73682 9444 ft 242 kts 173°
2026-05-07 23:59 -37.20345 144.74101 9130 ft 243 kts 173°
2026-05-08 00:00 -37.21991 144.74533 8807 ft 240 kts 172°
2026-05-08 00:00 -37.23631 144.74972 8492 ft 241 kts 172°
2026-05-08 00:00 -37.25264 144.75409 8167 ft 239 kts 173°
2026-05-08 00:00 -37.26879 144.75839 7860 ft 237 kts 173°
2026-05-08 00:01 -37.28487 144.76266 7541 ft 236 kts 173°
2026-05-08 00:01 -37.30093 144.76706 7294 ft 232 kts 170°
2026-05-08 00:01 -37.31599 144.77193 7137 ft 217 kts 174°
2026-05-08 00:01 -37.33059 144.77481 6872 ft 209 kts 176°
2026-05-08 00:02 -37.34476 144.77750 6629 ft 200 kts 177°
2026-05-08 00:02 -37.35827 144.78007 6351 ft 192 kts 177°
2026-05-08 00:02 -37.37126 144.78251 6082 ft 188 kts 177°
2026-05-08 00:02 -37.38413 144.78492 5831 ft 185 kts 177°
2026-05-08 00:03 -37.39701 144.78734 5572 ft 187 kts 178°
2026-05-08 00:03 -37.40987 144.78974 5322 ft 187 kts 178°
2026-05-08 00:03 -37.42259 144.79213 5059 ft 181 kts 178°
2026-05-08 00:03 -37.43478 144.79434 4824 ft 176 kts 178°
2026-05-08 00:04 -37.44684 144.79658 4583 ft 175 kts 178°
2026-05-08 00:04 -37.45869 144.79880 4344 ft 171 kts 178°
2026-05-08 00:04 -37.47018 144.80092 4110 ft 163 kts 179°
2026-05-08 00:04 -37.48139 144.80297 3890 ft 162 kts 179°
2026-05-08 00:05 -37.49238 144.80504 3674 ft 157 kts 179°
2026-05-08 00:05 -37.50311 144.80705 3467 ft 155 kts 179°
2026-05-08 00:05 -37.51376 144.80897 3253 ft 153 kts 179°
2026-05-08 00:05 -37.52424 144.81097 3046 ft 151 kts 179°
2026-05-08 00:06 -37.53461 144.81289 2831 ft 149 kts 179°
2026-05-08 00:06 -37.54442 144.81474 2638 ft 137 kts 180°
2026-05-08 00:06 -37.55389 144.81632 2454 ft 139 kts 179°
2026-05-08 00:06 -37.56350 144.81814 2269 ft 141 kts 179°
2026-05-08 00:07 -37.57286 144.81989 2080 ft 135 kts 179°
2026-05-08 00:07 -37.58132 144.82144 1912 ft 135 kts 179°
2026-05-08 00:07 -37.59034 144.82316 1733 ft 132 kts 179°
2026-05-08 00:07 -37.59972 144.82493 1528 ft 133 kts 178°
2026-05-08 00:08 -37.60875 144.82668 1352 ft 131 kts 179°
2026-05-08 00:08 -37.61786 144.82828 1169 ft 134 kts 180°
2026-05-08 00:08 -37.62722 144.83004 995 ft 136 kts 178°
2026-05-08 00:08 -37.63650 144.83188 816 ft 136 kts 179°
2026-05-08 00:09 -37.64606 144.83357 637 ft 138 kts 178°
2026-05-08 00:09 -37.65551 144.83539 467 ft 137 kts 179°
2026-05-08 00:09 -37.66384 144.83688 410 ft 91 kts 171°
2026-05-08 00:09 -37.66837 144.83773 396 ft 49 kts 172°
2026-05-08 00:10 -37.67107 144.83929 388 ft 35 kts 141°
2026-05-08 00:10 -37.67323 144.84088 382 ft 34 kts 170°
2026-05-08 00:10 -37.67563 144.84130 375 ft 36 kts 169°
2026-05-08 00:10 -37.67778 144.84168 373 ft 26 kts 171°
2026-05-08 00:11 -37.67858 144.84273 373 ft 14 kts 85°
2026-05-08 00:11 -37.67842 144.84391 374 ft 14 kts 79°
2026-05-08 00:11 -37.67824 144.84513 370 ft 14 kts 81°
2026-05-08 00:11 -37.67776 144.84594 375 ft 9 kts 31°
2026-05-08 00:12 -37.67745 144.84650 376 ft 7 kts 70°
2026-05-08 00:12 -37.67736 144.84715 377 ft 8 kts 81°
2026-05-08 00:12 -37.67729 144.84781 359 ft 8 kts 83°
2026-05-08 00:12 -37.67714 144.84841 379 ft 5 kts 45°
2026-05-08 00:13 -37.67687 144.84855 380 ft 3 kts 12°
2026-05-08 00:13 -37.67665 144.84853 381 ft 6 kts 354°
2026-05-08 00:13 -37.67634 144.84847 382 ft 3 kts 351°
2026-05-08 00:13 -37.67624 144.84845 382 ft 1 kts 352°
2026-05-08 00:14 -37.67622 144.84845 382 ft 0 kts 351°